Regional Weather Roundup
Issued by NWS Kansas City/Pleasant Hill, MO

Home | Current Version | Previous Version | Text Only | Print | Product List | Glossary On
Versions: 1 2 3 4 5 6 7 8 9 10 11 12 13 14 15 16 17 18 19 20 21 22 23 24 25 26 27 28 29 30 31 32 33 34 35 36 37 38 39 40 41 42 43 44 45 46 47 48 49 50
000
ASUS43 KEAX 262311
RWREAX

WEATHER ROUNDUP FOR EASTERN KANSAS AND NORTHWEST MISSOURI
NATIONAL WEATHER SERVICE KANSAS CITY/PLEASANT HILL MO
500 PM CST MON JAN 26 2015

KSZ040-057-103>105-MOZ028-029-037-043-270000-
...KANSAS CITY METROPOLITAN AREA...

CITY           SKY/WX    TMP DP  RH WIND       PRES   REMARKS
K.C. INTL      PTCLDY    58  33  39 N14G22    29.93R
K.C. DOWNTOWN  CLEAR     61  33  35 NW9       29.92R
LEES SUMMIT    CLEAR     58  33  39 N9        29.93R
OLATHE - IXD   CLEAR     59  34  39 NW9       29.94R
OLATHE - OJC   CLEAR     61  33  35 N9G16     29.93R
LAWRENCE       CLEAR     61  31  32 NW12      29.94R

$$

MOZ001>008-011>017-020>025-030>033-038>040-044>046-053-054-270000-
...NORTHERN AND CENTRAL MISSOURI...

CITY           SKY/WX    TMP DP  RH WIND       PRES   REMARKS
ST. JOSEPH     CLEAR     57  33  40 N13       29.94R
MOSBY          CLEAR     59  32  36 NW13      29.92R
WARRENSBURG    CLEAR     55  34  44 NW8       29.92R
WHITEMAN AFB   CLEAR     56  35  45 NW13      29.91R
CLINTON        CLEAR     57  37  47 NW9       29.93R
SEDALIA        CLEAR     53  37  54 NW8       29.91R
WARSAW         NOT AVBL
MARSHALL       CLEAR     57  39  51 NW13      29.89S
CHILLICOTHE      N/A     56  36  47 NW10      29.91R
MOBERLY        CLEAR     52  34  50 W12       29.88R
KIRKSVILLE     CLEAR     50  36  58 NW12      29.87R

$$

MOZ041-047>049-056>058-063>065-088>090-097-270000-
...EASTERN AND SOUTHERN MISSOURI...

CITY           SKY/WX    TMP DP  RH WIND       PRES   REMARKS
ST. LOUIS INTL PTCLDY    38  29  70 SE8       29.89S WCI  32
SPIRIT OF STL  PTCLDY    42  32  67 CALM      29.88S
COLUMBIA       CLEAR     51  36  56 W13G21    29.89R
JEFFERSON CITY CLEAR     53  36  52 NW10      29.89R
MEXICO         CLEAR     50  41  71 W13       29.87R
HANNIBAL       CLEAR     45  34  65 W5        29.86R
ROLLA          CLEAR     50  34  54 W14       29.86R
LEBANON        CLEAR     52  34  50 W10       29.92R
OSAGE BEACH    CLEAR     55  34  44 W12G17    29.89R
SPRINGFIELD    CLEAR     55  35  47 W16       29.92S
BRANSON        CLEAR     57  32  38 W17G23    29.94S
NEVADA         CLEAR     59  37  44 W8        29.95R
JOPLIN         CLEAR     58  35  42 W8        29.97R
WEST PLAINS    CLEAR     53  31  42 W13G21    29.89R

$$

IAZ060-094-KSZ022-034>040-054-083-096-NEZ052-066-093-270000-
...KANSAS...SOUTHEAST NEBRASKA AND IOWA...

CITY           SKY/WX    TMP DP  RH WIND       PRES   REMARKS
TOPEKA         CLEAR     64  30  27 NW13      29.95R
MANHATTAN      CLEAR     67  27  22 NW6       29.98R
EMPORIA        CLEAR     64  34  32 NW13G21   29.96S
CHANUTE        CLEAR     64  36  35 NW15      29.97R
WICHITA        CLEAR     71  33  24 N12       29.99R
OMAHA          PTCLDY    54  35  48 NW14      29.96R
LINCOLN        CLEAR     59  32  36 NW9       29.99R
FALLS CITY     CLEAR     58  31  35 NW10      29.95R
LAMONI         CLEAR     51  36  56 NW16      29.89R
DES MOINES     PTCLDY    50  37  61 NW22      29.86R

$$



USA.gov is the U.S. government's official web portal to all federal, state and local government web resources and services.